Time[GMT],salinity[psu](50m),sigma_t[kg/m^3](50m),conductivity[msiemens/cm](50m),temperature[C](50m)
2014-09-20 00:00,32.888,25.085,37.174,11.26
2014-09-20 01:00,32.905,25.123,37.064,11.12
2014-09-20 02:00,32.953,25.180,37.013,11.01
2014-09-20 03:00,32.868,25.066,37.172,11.28
2014-09-20 04:00,32.915,25.119,37.138,11.19
2014-09-20 05:00,32.863,25.050,37.230,11.35
2014-09-20 06:00,32.851,25.015,37.345,11.49
2014-09-20 07:00,32.862,25.024,37.356,11.49
2014-09-20 08:00,32.871,25.025,37.392,11.52
2014-09-20 09:00,32.872,25.035,37.348,11.47
2014-09-20 10:00,32.864,25.058,37.195,11.31
2014-09-20 11:00,32.875,25.077,37.152,11.25
2014-09-20 12:00,32.952,25.268,36.551,10.50
2014-09-20 13:00,32.916,25.123,37.121,11.17
2014-09-20 14:00,32.903,25.125,37.044,11.10
2014-09-20 15:00,32.889,25.100,37.102,11.18
2014-09-20 16:00,32.947,25.199,36.890,10.88
2014-09-20 17:00,32.932,25.162,37.001,11.02
2014-09-20 18:00,32.904,25.116,37.100,11.16
2014-09-20 19:00,32.894,25.105,37.108,11.18
2014-09-20 20:00,32.884,25.084,37.161,11.25
2014-09-20 21:00,32.884,25.109,37.034,11.11
2014-09-20 22:00,32.881,25.084,37.149,11.24
2014-09-20 23:00,32.898,25.100,37.148,11.22
2014-09-21 00:00,32.884,25.093,37.115,11.20
2014-09-21 01:00,32.892,25.111,37.060,11.13
2014-09-21 02:00,32.882,25.088,37.132,11.22
2014-09-21 03:00,32.908,25.209,36.643,10.65
2014-09-21 04:00,32.904,25.141,36.973,11.02
2014-09-21 05:00,32.866,25.075,37.115,11.22
2014-09-21 06:00,32.860,25.145,36.730,10.80
2014-09-21 07:00,32.891,25.088,37.177,11.26
2014-09-21 09:00,32.837,25.176,36.455,10.52
2014-09-21 10:00,32.874,25.163,36.708,10.76
2014-09-21 11:00,32.891,25.141,36.905,10.96
2014-09-21 12:00,32.915,25.162,36.921,10.95
2014-09-21 13:00,32.957,25.236,36.746,10.71
2014-09-21 14:00,32.962,25.224,36.832,10.80
2014-09-21 15:00,32.916,25.148,36.994,11.03
2014-09-21 16:00,32.893,25.153,36.853,10.90
2014-09-21 17:00,32.867,25.131,36.836,10.91
2014-09-21 18:00,32.896,25.154,36.865,10.91
2014-09-21 19:00,32.888,25.154,36.821,10.87
2014-09-21 20:00,32.856,25.041,37.241,11.37
2014-09-21 21:00,32.857,25.079,37.052,11.16
2014-09-21 22:00,32.864,25.127,36.842,10.92
2014-09-21 23:00,32.889,25.152,36.840,10.89
2014-09-22 00:00,32.853,25.178,36.525,10.58
2014-09-22 01:00,32.862,25.211,36.399,10.43
2014-09-22 02:00,32.859,25.222,36.324,10.35
2014-09-22 03:00,32.812,25.182,36.295,10.37
2014-09-22 04:00,32.878,25.106,37.019,11.10
2014-09-22 05:00,32.801,25.270,35.765,9.79
2014-09-22 06:00,,,,
2014-09-22 07:00,32.819,25.167,36.410,10.49
2014-09-22 08:00,32.819,25.150,36.500,10.59
2014-09-22 09:00,32.802,25.172,36.294,10.38
2014-09-22 10:00,32.829,25.161,36.492,10.57
2014-09-22 11:00,32.866,25.192,36.520,10.56
2014-09-22 12:00,32.883,25.161,36.762,10.81
2014-09-22 13:00,32.890,25.160,36.805,10.85
2014-09-22 14:00,32.876,25.186,36.602,10.64
2014-09-22 15:00,,,,
2014-09-22 16:00,32.802,25.149,36.420,10.52
2014-09-22 17:00,32.809,25.125,36.580,10.69
2014-09-22 18:00,32.821,25.054,36.997,11.14
2014-09-22 19:00,32.821,25.072,36.907,11.04
2014-09-22 20:00,32.854,25.125,36.805,10.89
2014-09-22 21:00,32.811,25.152,36.447,10.54
2014-09-22 22:00,32.797,25.160,36.334,10.43
2014-09-22 23:00,32.818,25.232,36.059,10.10
2014-09-23 00:00,32.897,25.230,36.479,10.48
2014-09-23 01:00,32.906,25.332,35.975,9.91
2014-09-23 02:00,33.081,25.316,36.961,10.81
2014-09-23 03:00,33.022,25.221,37.146,11.08
2014-09-23 04:00,33.006,25.227,37.040,10.98
2014-09-23 05:00,32.980,25.214,36.977,10.94
2014-09-23 06:00,32.899,25.205,36.616,10.63
2014-09-23 07:00,32.911,25.216,36.619,10.62
2014-09-23 08:00,32.882,25.175,36.689,10.73
2014-09-23 09:00,32.866,25.157,36.700,10.76
2014-09-23 10:00,32.878,25.103,37.037,11.12
2014-09-23 11:00,32.924,25.122,37.165,11.21
2014-09-23 12:00,32.899,25.149,36.905,10.95
2014-09-23 13:00,33.038,25.225,37.208,11.13
2014-09-23 14:00,33.009,25.254,36.916,10.84
2014-09-23 15:00,32.989,25.254,36.814,10.75
2014-09-23 16:00,32.999,25.234,36.969,10.91
2014-09-23 17:00,32.936,25.208,36.788,10.78
2014-09-23 18:00,33.006,25.282,36.759,10.67
2014-09-23 19:00,32.878,25.262,36.208,10.20
2014-09-23 20:00,32.863,25.289,35.987,9.97
2014-09-23 21:00,32.863,25.301,35.924,9.90
2014-09-23 22:00,32.902,25.132,37.007,11.06
2014-09-23 23:00,32.897,25.179,36.740,10.77
2014-09-24 00:00,33.007,25.134,37.513,11.50
2014-09-24 01:00,33.039,25.130,37.692,11.66
2014-09-24 03:00,33.145,25.269,37.517,11.35
2014-09-24 04:00,33.138,25.243,37.610,11.46
2014-09-24 05:00,33.147,25.260,37.574,11.41
2014-09-24 06:00,33.140,25.269,37.494,11.33
2014-09-24 07:00,33.006,25.073,37.813,11.83
2014-09-24 08:00,32.930,25.034,37.634,11.72
2014-09-24 09:00,32.875,25.077,37.152,11.25
2014-09-24 10:00,32.905,25.134,37.010,11.06
2014-09-24 11:00,32.912,25.136,37.035,11.08
2014-09-24 12:00,32.940,25.209,36.801,10.79
2014-09-24 13:00,32.920,25.151,36.998,11.03
2014-09-24 14:00,33.010,25.177,37.316,11.28
2014-09-24 15:00,32.960,25.268,36.595,10.54
2014-09-24 16:00,33.124,25.266,37.432,11.28
2014-09-24 17:00,33.082,25.279,37.153,11.02
2014-09-24 18:00,33.008,25.298,36.679,10.58
2014-09-24 19:00,32.958,25.263,36.611,10.56
2014-09-24 20:00,32.946,25.231,36.717,10.69
2014-09-24 21:00,32.929,25.204,36.772,10.77
2014-09-24 22:00,,,,
2014-09-24 23:00,32.958,25.152,37.181,11.19
2014-09-25 00:00,32.941,25.146,37.128,11.15
2014-09-25 01:00,32.945,25.130,37.232,11.26
2014-09-25 02:00,32.977,25.208,36.992,10.96
2014-09-25 03:00,32.953,25.223,36.796,10.77
2014-09-25 04:00,32.954,25.137,37.241,11.26
2014-09-25 05:00,32.985,25.181,37.173,11.15
2014-09-25 06:00,33.006,25.226,37.049,10.99
2014-09-25 07:00,33.106,25.291,37.213,11.06
2014-09-25 08:00,33.140,25.263,37.521,11.36
2014-09-25 09:00,33.078,25.205,37.513,11.42
2014-09-25 10:00,32.951,25.142,37.202,11.22
2014-09-25 11:00,33.000,25.187,37.215,11.18
2014-09-25 12:00,33.035,25.214,37.250,11.18
2014-09-25 13:00,33.027,25.184,37.360,11.31
2014-09-25 14:00,33.020,25.166,37.417,11.38
2014-09-25 15:00,33.107,25.229,37.533,11.41
2014-09-25 16:00,33.068,25.177,37.603,11.53
2014-09-25 17:00,33.087,25.199,37.586,11.49
2014-09-25 18:00,33.037,25.236,37.153,11.07
2014-09-25 19:00,33.063,25.163,37.643,11.58
2014-09-25 20:00,33.018,25.214,37.170,11.11
2014-09-25 21:00,33.058,25.188,37.492,11.42
2014-09-25 22:00,33.018,25.177,37.351,11.31
2014-09-25 23:00,32.974,25.196,37.034,11.01
2014-09-26 00:00,32.942,25.168,37.020,11.03
2014-09-26 01:00,32.929,25.149,37.052,11.08
2014-09-26 02:00,32.949,25.172,37.036,11.04
2014-09-26 03:00,32.959,25.233,36.775,10.74
2014-09-26 04:00,32.982,25.265,36.726,10.66
2014-09-26 05:00,32.950,25.252,36.631,10.59
2014-09-26 06:00,33.018,25.282,36.816,10.72
2014-09-26 07:00,32.928,25.183,36.880,10.89
2014-09-26 08:00,32.911,25.121,37.107,11.16
2014-09-26 09:00,32.931,25.144,37.091,11.12
2014-09-26 10:00,32.911,25.121,37.107,11.16
2014-09-26 11:00,32.887,25.066,37.263,11.36
2014-09-26 12:00,32.949,25.205,36.864,10.85
2014-09-26 13:00,32.928,25.177,36.907,10.92
2014-09-26 14:00,33.001,25.269,36.799,10.72
2014-09-26 15:00,33.092,25.238,37.408,11.29
2014-09-26 16:00,33.080,25.240,37.341,11.23
2014-09-26 17:00,33.079,25.218,37.450,11.35
2014-09-26 18:00,33.093,25.266,37.273,11.14
2014-09-26 19:00,33.037,25.223,37.216,11.14
2014-09-26 21:00,33.035,25.141,37.614,11.58
2014-09-26 22:00,33.029,25.197,37.308,11.25
2014-09-26 23:00,33.018,25.121,37.634,11.62
2014-09-27 00:00,33.026,25.136,37.596,11.57
2014-09-27 01:00,33.047,25.196,37.399,11.33
2014-09-27 02:00,33.159,25.318,37.340,11.14
2014-09-27 03:00,33.077,25.187,37.594,11.51
2014-09-27 04:00,33.096,25.216,37.540,11.43
2014-09-27 05:00,33.069,25.180,37.585,11.51
2014-09-27 06:00,33.059,25.160,37.639,11.58
2014-09-27 07:00,33.059,25.160,37.639,11.58
2014-09-27 08:00,33.076,25.185,37.602,11.52
2014-09-27 09:00,33.064,25.160,37.662,11.60
2014-09-27 10:00,33.042,25.123,37.740,11.71
2014-09-27 11:00,33.054,25.187,37.479,11.41
2014-09-27 12:00,33.027,25.145,37.561,11.53
2014-09-27 13:00,33.048,25.179,37.491,11.43
2014-09-27 14:00,33.048,25.170,37.537,11.48
2014-09-27 15:00,33.050,25.135,37.721,11.68
2014-09-27 16:00,33.059,25.152,37.675,11.62
2014-09-27 17:00,33.084,25.196,37.582,11.49
2014-09-27 18:00,33.119,25.252,37.472,11.33
2014-09-27 19:00,33.076,25.278,37.128,11.00
2014-09-27 20:00,33.078,25.208,37.494,11.40
2014-09-27 21:00,33.089,25.196,37.606,11.51
2014-09-27 22:00,33.065,25.244,37.244,11.14
2014-09-27 23:00,33.053,25.150,37.660,11.61
2014-09-28 00:00,33.060,25.126,37.813,11.77
2014-09-28 01:00,33.078,25.186,37.604,11.52
2014-09-28 02:00,33.060,25.148,37.704,11.65
2014-09-28 03:00,33.081,25.178,37.662,11.58
2014-09-28 04:00,33.092,25.180,37.700,11.61
2014-09-28 05:00,33.126,25.241,37.561,11.42
2014-09-28 06:00,33.093,25.206,37.573,11.47
2014-09-28 07:00,33.101,25.197,37.664,11.56
2014-09-28 08:00,33.115,25.233,37.550,11.42
2014-09-28 09:00,33.119,25.233,37.573,11.44
2014-09-28 10:00,33.115,25.228,37.578,11.45
2014-09-28 11:00,33.115,25.228,37.578,11.45
2014-09-28 12:00,33.074,25.142,37.800,11.74
2014-09-28 13:00,33.100,25.164,37.818,11.73
2014-09-28 14:00,33.099,25.184,37.716,11.62
2014-09-28 15:00,33.104,25.186,37.731,11.63
2014-09-28 16:00,33.106,25.204,37.651,11.54
2014-09-28 17:00,33.104,25.193,37.694,11.59
2014-09-28 18:00,33.115,25.235,37.541,11.41
2014-09-28 19:00,33.090,25.160,37.789,11.71
2014-09-28 20:00,33.113,25.219,37.612,11.49
2014-09-28 21:00,33.107,25.214,37.606,11.49
2014-09-28 22:00,33.101,25.193,37.682,11.58
2014-09-28 23:00,33.106,25.202,37.660,11.55
2014-09-29 00:00,33.109,25.216,37.608,11.49
2014-09-29 01:00,33.071,25.155,37.724,11.66
2014-09-29 02:00,33.104,25.226,37.530,11.41
2014-09-29 03:00,33.109,25.195,37.708,11.60
2014-09-29 04:00,33.107,25.220,37.579,11.46
2014-09-29 05:00,33.109,25.201,37.681,11.57
2014-09-29 06:00,33.131,25.236,37.612,11.47
2014-09-29 07:00,33.092,25.162,37.792,11.71
2014-09-29 08:00,33.091,25.161,37.790,11.71
2014-09-29 09:00,33.125,25.225,37.643,11.51
2014-09-29 10:00,33.069,25.179,37.595,11.52
2014-09-29 11:00,33.087,25.193,37.613,11.52
2014-09-29 12:00,33.003,25.166,37.336,11.31
2014-09-29 13:00,33.048,25.166,37.555,11.50
2014-09-29 14:00,33.104,25.232,37.503,11.38
2014-09-29 15:00,33.046,25.230,37.225,11.14
2014-09-29 16:00,33.051,25.227,37.267,11.18
2014-09-29 17:00,32.995,25.199,37.128,11.09
2014-09-29 18:00,33.085,25.202,37.556,11.46
2014-09-29 19:00,33.012,25.207,37.173,11.12
2014-09-29 20:00,33.070,25.238,37.304,11.20
2014-09-29 21:00,33.052,25.229,37.259,11.17
2014-09-29 22:00,33.046,25.128,37.735,11.70
2014-09-29 23:00,33.050,25.114,37.821,11.79
2014-09-30 00:00,33.032,25.058,38.013,12.02
2014-09-30 01:00,33.032,25.058,38.013,12.02
2014-09-30 02:00,32.679,25.095,36.073,10.27
2014-09-30 03:00,32.675,25.075,36.159,10.37
2014-09-30 04:00,32.746,25.181,35.961,10.07
2014-09-30 05:00,32.692,25.139,35.908,10.07
2014-09-30 06:00,32.800,25.200,36.140,10.21
2014-09-30 07:00,32.822,25.195,36.278,10.34
2014-09-30 08:00,32.872,25.272,36.121,10.11
2014-09-30 09:00,32.766,25.040,36.797,10.98
2014-09-30 10:00,32.766,25.040,36.797,10.98
2014-09-30 11:00,32.748,25.088,36.465,10.63
2014-09-30 12:00,32.837,25.157,36.554,10.63
2014-09-30 13:00,32.816,25.095,36.767,10.89
2014-09-30 14:00,32.882,25.093,37.104,11.19
2014-09-30 15:00,32.878,25.106,37.019,11.10
2014-09-30 16:00,32.928,25.272,36.410,10.37
2014-09-30 17:00,32.947,25.273,36.501,10.45
2014-09-30 18:00,32.918,25.211,36.680,10.68
2014-09-30 19:00,32.921,25.124,37.144,11.19
2014-09-30 20:00,32.942,25.248,36.614,10.58
2014-09-30 21:00,32.924,25.119,37.183,11.23
2014-09-30 22:00,32.863,25.089,37.031,11.13
2014-09-30 23:00,32.873,25.117,36.942,11.02
2014-10-01 00:00,32.880,25.091,37.102,11.19
2014-10-01 01:00,32.866,25.050,37.242,11.36
2014-10-01 02:00,32.744,25.007,36.856,11.07
2014-10-01 03:00,32.763,25.019,36.894,11.09
2014-10-01 04:00,32.832,25.137,36.630,10.72
2014-10-01 05:00,32.832,25.137,36.630,10.72
2014-10-01 06:00,32.786,25.042,36.890,11.06
2014-10-01 07:00,32.853,25.185,36.489,10.54
2014-10-01 08:00,32.867,25.225,36.350,10.37
2014-10-01 09:00,32.928,25.233,36.618,10.60
2014-10-01 10:00,32.826,25.048,37.057,11.20
2014-10-01 11:00,32.782,25.012,37.021,11.21
2014-10-01 12:00,32.782,25.019,36.985,11.17
2014-10-01 13:00,32.748,25.003,36.896,11.11
2014-10-01 14:00,32.789,25.037,36.929,11.10
2014-10-01 15:00,32.741,24.987,36.943,11.17
2014-10-01 16:00,32.767,25.033,36.844,11.03
2014-10-01 17:00,32.747,24.995,36.931,11.15
2014-10-01 18:00,32.753,25.010,36.883,11.09
2014-10-01 19:00,32.763,25.022,36.876,11.07
2014-10-01 20:00,32.814,25.111,36.675,10.79
2014-10-01 21:00,32.783,25.068,36.743,10.90
2014-10-01 22:00,32.833,25.150,36.568,10.65
2014-10-01 23:00,32.810,25.087,36.779,10.91
2014-10-02 01:00,32.830,25.139,36.610,10.70
2014-10-02 02:00,32.735,24.971,36.991,11.23
2014-10-02 03:00,32.765,25.004,36.977,11.18
2014-10-02 04:00,32.784,25.035,36.915,11.09
2014-10-02 05:00,32.793,25.047,36.897,11.06
2014-10-02 06:00,32.807,25.083,36.785,10.92
2014-10-02 07:00,32.836,25.125,36.715,10.81
2014-10-02 08:00,32.830,25.127,36.673,10.77
2014-10-02 10:00,32.816,25.113,36.677,10.79
2014-10-02 11:00,32.849,25.172,36.539,10.60
2014-10-02 12:00,32.781,25.031,36.921,11.10
2014-10-02 13:00,32.804,25.077,36.800,10.94
2014-10-02 14:00,32.759,24.987,37.034,11.25
2014-10-02 15:00,32.702,24.893,37.219,11.52
2014-10-02 16:00,32.785,25.030,36.943,11.12
2014-10-02 17:00,32.751,24.992,36.972,11.19
2014-10-02 18:00,32.784,25.033,36.924,11.10
2014-10-02 19:00,32.843,25.151,36.614,10.69
2014-10-02 20:00,32.846,25.154,36.617,10.69
2014-10-02 21:00,32.905,25.289,36.208,10.17
2014-10-02 22:00,32.829,25.177,36.411,10.48
2014-10-02 23:00,32.884,25.129,36.935,11.00
2014-10-03 00:00,32.914,25.185,36.793,10.81
2014-10-03 01:00,32.951,25.150,37.156,11.17
2014-10-03 02:00,33.034,25.113,37.750,11.73
2014-10-03 03:00,33.003,25.076,37.782,11.80
2014-10-03 04:00,33.009,25.084,37.770,11.78
2014-10-03 05:00,32.969,25.068,37.656,11.70
2014-10-03 06:00,32.995,25.095,37.646,11.66
2014-10-03 07:00,32.985,25.168,37.236,11.22
2014-10-03 08:00,32.884,25.248,36.313,10.31
2014-10-03 09:00,32.950,25.238,36.703,10.67
2014-10-03 10:00,33.005,25.228,37.029,10.97
2014-10-03 11:00,33.071,25.197,37.515,11.43
2014-10-03 12:00,33.117,25.194,37.753,11.64
2014-10-03 13:00,33.154,25.265,37.581,11.41
2014-10-03 14:00,33.166,25.114,38.381,12.27
2014-10-03 15:00,33.092,25.023,38.470,12.45
2014-10-03 16:00,33.070,24.980,38.566,12.58
2014-10-03 17:00,33.128,25.035,38.581,12.53
2014-10-03 18:00,33.170,25.224,37.862,11.70
2014-10-03 19:00,33.168,25.241,37.769,11.60
2014-10-03 20:00,33.142,25.083,38.421,12.34
2014-10-03 21:00,33.159,25.141,38.218,12.10
2014-10-03 22:00,33.096,25.087,38.180,12.13
2014-10-03 23:00,33.010,25.046,37.963,11.99
2014-10-04 00:00,33.039,25.067,38.002,12.00
2014-10-04 01:00,33.058,25.102,37.921,11.89
2014-10-04 02:00,33.064,25.066,38.129,12.11
2014-10-04 03:00,33.066,25.061,38.158,12.14
2014-10-04 04:00,33.067,25.060,38.168,12.15
2014-10-04 05:00,33.007,24.987,38.234,12.29
2014-10-04 06:00,33.015,24.969,38.362,12.42
2014-10-04 07:00,33.030,24.980,38.377,12.42
2014-10-04 08:00,33.025,25.017,38.180,12.21
2014-10-04 09:00,,,,
2014-10-04 10:00,33.031,25.006,38.259,12.29
2014-10-04 11:00,33.040,25.023,38.223,12.24
2014-10-04 12:00,33.030,25.009,38.240,12.27
2014-10-04 13:00,33.049,25.039,38.186,12.19
2014-10-04 14:00,33.052,25.041,38.189,12.19
2014-10-04 15:00,33.035,25.009,38.264,12.29
2014-10-04 16:00,33.048,25.017,38.286,12.30
2014-10-04 17:00,33.033,25.000,38.298,12.33
2014-10-04 18:00,33.018,24.983,38.310,12.36
2014-10-04 19:00,33.018,24.983,38.310,12.36
2014-10-04 20:00,33.009,24.976,38.301,12.36
2014-10-04 21:00,33.015,24.978,38.316,12.37
2014-10-04 22:00,33.010,24.975,38.311,12.37
2014-10-04 23:00,32.993,24.965,38.275,12.35
2014-10-05 00:00,33.031,25.006,38.259,12.29
2014-10-05 01:00,33.056,25.041,38.212,12.21
2014-10-05 03:00,33.028,25.012,38.220,12.25
2014-10-05 04:00,33.025,25.022,38.152,12.18
2014-10-05 05:00,33.006,24.983,38.252,12.31
2014-10-05 06:00,32.939,24.974,37.972,12.08
2014-10-05 07:00,32.938,24.996,37.861,11.96
2014-10-05 08:00,32.931,24.979,37.909,12.02
2014-10-05 09:00,32.925,24.971,37.921,12.04
2014-10-05 10:00,32.948,24.985,37.963,12.06
2014-10-05 11:00,33.011,25.023,38.083,12.12
2014-10-05 12:00,33.023,25.053,37.995,12.01
2014-10-05 13:00,,,,
2014-10-05 14:00,33.041,25.074,37.977,11.97
2014-10-05 15:00,33.042,25.156,37.576,11.53
2014-10-05 16:00,33.048,25.066,38.048,12.04
2014-10-05 17:00,33.127,25.154,38.001,11.90
2014-10-05 18:00,33.048,25.042,38.167,12.17
2014-10-05 19:00,33.076,25.118,37.930,11.88
2014-10-05 20:00,33.064,25.157,37.681,11.62
2014-10-05 21:00,33.053,25.111,37.852,11.82
2014-10-05 22:00,33.124,25.170,37.907,11.80
2014-10-05 23:00,33.157,25.098,38.418,12.32
2014-10-06 00:00,33.172,25.102,38.470,12.36
2014-10-06 01:00,33.219,25.136,38.528,12.37
2014-10-06 02:00,33.213,25.105,38.651,12.51
2014-10-06 03:00,33.194,25.104,38.567,12.44
2014-10-06 04:00,33.172,25.096,38.498,12.39
2014-10-06 05:00,33.101,25.068,38.295,12.25
2014-10-06 06:00,33.092,25.065,38.268,12.23
2014-10-06 07:00,33.090,25.059,38.284,12.25
2014-10-06 08:00,33.086,25.060,38.261,12.23
2014-10-06 09:00,33.090,25.063,38.266,12.23
2014-10-06 10:00,33.111,25.070,38.333,12.28
2014-10-06 11:00,33.112,25.084,38.270,12.21
2014-10-06 12:00,33.118,25.102,38.212,12.14
2014-10-06 13:00,33.096,25.115,38.043,11.98
2014-10-06 14:00,33.109,25.114,38.111,12.04
2014-10-06 15:00,33.074,25.089,38.066,12.03
2014-10-06 16:00,33.050,25.053,38.123,12.12
2014-10-06 17:00,33.053,25.072,38.044,12.03
2014-10-06 18:00,33.060,25.077,38.051,12.03
2014-10-06 19:00,33.052,25.064,38.080,12.07
2014-10-06 20:00,33.059,25.073,38.068,12.05
2014-10-06 21:00,33.044,25.052,38.099,12.10
2014-10-06 22:00,33.051,25.067,38.060,12.05
2014-10-06 23:00,33.064,25.094,37.991,11.96
2014-10-07 00:00,33.062,25.098,37.962,11.93
2014-10-07 01:00,33.072,25.130,37.853,11.80
2014-10-07 02:00,33.061,25.091,37.988,11.96
2014-10-07 03:00,33.065,25.083,38.047,12.02
2014-10-07 04:00,33.066,25.081,38.067,12.04
2014-10-07 05:00,33.061,25.062,38.135,12.12
2014-10-07 06:00,33.053,25.050,38.154,12.15
2014-10-07 07:00,33.050,25.043,38.169,12.17
2014-10-07 08:00,33.041,25.027,38.206,12.22
2014-10-07 09:00,33.044,25.031,38.199,12.21
2014-10-07 10:00,33.039,25.027,38.194,12.21
2014-10-07 11:00,33.041,25.031,38.187,12.20
2014-10-07 12:00,33.043,25.027,38.217,12.23
2014-10-07 13:00,33.056,25.070,38.065,12.05
2014-10-07 14:00,33.057,25.092,37.966,11.94
2014-10-07 15:00,33.052,25.088,37.961,11.94
2014-10-07 16:00,33.058,25.080,38.031,12.01
2014-10-07 17:00,33.052,25.077,38.016,12.00
2014-10-07 18:00,33.042,25.039,38.152,12.16
2014-10-07 19:00,33.048,25.051,38.121,12.12
2014-10-07 20:00,33.034,25.031,38.153,12.17
2014-10-07 21:00,33.034,25.031,38.152,12.17
2014-10-07 22:00,33.034,25.031,38.152,12.17
2014-10-07 23:00,33.022,24.999,38.250,12.29
2014-10-08 00:00,33.022,24.988,38.305,12.35
2014-10-08 01:00,33.048,25.062,38.066,12.06
2014-10-08 02:00,33.043,25.040,38.153,12.16
2014-10-08 03:00,33.049,25.065,38.058,12.05
2014-10-08 04:00,33.048,25.060,38.075,12.07
2014-10-08 05:00,33.054,25.082,37.999,11.98
2014-10-08 06:00,33.044,25.099,37.870,11.85
2014-10-08 07:00,33.030,25.080,37.892,11.89
2014-10-08 08:00,33.060,25.089,37.996,11.97
2014-10-08 09:00,33.026,25.021,38.163,12.19
2014-10-08 10:00,33.033,25.017,38.216,12.24
2014-10-08 11:00,33.027,25.007,38.237,12.27
2014-10-08 12:00,33.015,25.022,38.105,12.14
2014-10-08 13:00,33.021,25.040,38.048,12.07
2014-10-08 14:00,33.058,25.111,37.875,11.84
2014-10-08 15:00,33.080,25.093,38.072,12.03
2014-10-08 17:00,33.075,25.087,38.076,12.04
2014-10-08 18:00,33.060,25.074,38.070,12.05
2014-10-08 19:00,33.034,25.007,38.272,12.30
2014-10-08 20:00,33.042,25.022,38.234,12.25
2014-10-08 21:00,33.055,25.026,38.275,12.28
2014-10-08 22:00,33.072,25.042,38.284,12.27
2014-10-08 23:00,33.071,25.035,38.310,12.30
2014-10-09 00:00,33.095,25.067,38.271,12.23
2014-10-09 01:00,33.112,25.090,38.243,12.18
2014-10-09 02:00,33.116,25.100,38.210,12.14
2014-10-09 03:00,33.127,25.115,38.194,12.11
2014-10-09 04:00,33.152,25.184,37.972,11.84
2014-10-09 05:00,33.122,25.122,38.134,12.05
2014-10-09 06:00,33.115,25.131,38.053,11.97
2014-10-09 07:00,33.112,25.088,38.252,12.19
2014-10-09 08:00,33.102,25.072,38.278,12.23
2014-10-09 09:00,33.063,25.031,38.293,12.29
2014-10-09 10:00,33.050,25.021,38.279,12.29
2014-10-09 11:00,33.046,25.022,38.257,12.27
2014-10-09 12:00,33.049,25.020,38.278,12.29
2014-10-09 14:00,33.095,25.076,38.225,12.18
2014-10-09 15:00,33.092,25.089,38.148,12.10
2014-10-09 16:00,33.123,25.177,37.869,11.76
2014-10-09 17:00,33.119,25.176,37.856,11.75
2014-10-09 18:00,33.095,25.165,37.795,11.71
2014-10-09 19:00,33.081,25.133,37.881,11.82
2014-10-09 20:00,33.123,25.197,37.768,11.65
2014-10-09 21:00,33.080,25.131,37.889,11.83
2014-10-09 22:00,33.038,25.068,37.992,11.99
2014-10-09 23:00,33.019,25.017,38.146,12.18
2014-10-10 00:00,33.010,24.995,38.210,12.26
2014-10-10 01:00,33.029,25.031,38.129,12.15
2014-10-10 02:00,,,,
2014-10-10 03:00,33.089,25.133,37.916,11.85
2014-10-10 04:00,33.101,25.178,37.755,11.66
2014-10-10 05:00,33.122,25.191,37.795,11.68
2014-10-10 06:00,33.066,25.142,37.765,11.71
2014-10-10 07:00,33.080,25.163,37.724,11.65
2014-10-10 08:00,33.043,25.076,37.979,11.97
2014-10-10 09:00,33.055,25.126,37.790,11.75
2014-10-10 10:00,33.062,25.118,37.861,11.82
2014-10-10 11:00,33.063,25.119,37.862,11.82
2014-10-10 12:00,33.071,25.129,37.852,11.80
2014-10-10 13:00,33.051,25.108,37.859,11.83
2014-10-10 14:00,33.048,25.106,37.856,11.83
2014-10-10 15:00,33.056,25.110,37.873,11.84
2014-10-10 16:00,33.129,25.207,37.747,11.62
2014-10-10 17:00,33.125,25.208,37.725,11.60
2014-10-10 18:00,33.126,25.214,37.698,11.57
2014-10-10 19:00,33.084,25.154,37.792,11.72
2014-10-10 20:00,33.068,25.139,37.785,11.73
2014-10-10 21:00,33.082,25.187,37.617,11.53
2014-10-10 22:00,33.090,25.166,37.762,11.68
2014-10-10 23:00,33.075,25.149,37.774,11.71
2014-10-11 00:00,33.075,25.153,37.756,11.69
2014-10-11 01:00,33.057,25.131,37.774,11.73
2014-10-11 02:00,33.056,25.137,37.736,11.69
2014-10-11 03:00,33.059,25.129,37.794,11.75
2014-10-11 04:00,33.100,25.177,37.754,11.66
2014-10-11 05:00,33.091,25.171,37.745,11.66
2014-10-11 06:00,33.119,25.212,37.673,11.55
2014-10-11 07:00,33.123,25.215,37.677,11.55
2014-10-11 08:00,33.132,25.224,37.677,11.54
2014-10-11 09:00,33.100,25.175,37.763,11.67
2014-10-11 11:00,33.074,25.159,37.718,11.65
2014-10-11 12:00,33.053,25.117,37.825,11.79
2014-10-11 13:00,33.050,25.101,37.885,11.86
2014-10-11 14:00,33.051,25.104,37.877,11.85
2014-10-11 15:00,33.061,25.132,37.787,11.74
2014-10-11 16:00,33.093,25.187,37.674,11.58
2014-10-11 17:00,33.120,25.220,37.637,11.51
2014-10-11 18:00,33.100,25.183,37.727,11.63
2014-10-11 19:00,33.111,25.186,37.765,11.66
2014-10-11 20:00,33.130,25.206,37.757,11.63
2014-10-11 21:00,33.131,25.204,37.777,11.65
2014-10-11 22:00,33.131,25.200,37.795,11.67
2014-10-11 23:00,33.113,25.172,37.840,11.74
2014-10-12 00:00,33.064,25.113,37.900,11.86
2014-10-12 01:00,33.110,25.169,37.847,11.75
2014-10-12 02:00,33.143,25.209,37.807,11.67
2014-10-12 03:00,33.133,25.195,37.824,11.70
2014-10-12 04:00,33.093,25.131,37.948,11.88
2014-10-12 05:00,33.113,25.161,37.895,11.80
2014-10-12 06:00,33.154,25.219,37.809,11.66
2014-10-12 07:00,33.135,25.196,37.836,11.71
2014-10-12 08:00,33.108,25.178,37.790,11.69
2014-10-12 09:00,33.096,25.158,37.832,11.75
2014-10-12 10:00,33.106,25.141,37.961,11.88
2014-10-12 11:00,33.115,25.162,37.907,11.81
2014-10-12 12:00,33.121,25.168,37.904,11.80
2014-10-12 13:00,33.112,25.166,37.867,11.77
2014-10-12 14:00,33.116,25.184,37.798,11.69